Flag for Germany Weather past 2 weeks in Burg, Saxony-Anhalt, Germany

Now
61 °F

Overcast.


Feels Like: 61 °F
Forecast: 52 / 68 °F
Wind: 2 mph from Northwest

Location: Magdeburg

Current Time: Sep 1, 2015 at 8:25:38 PM

Latest Report: Sep 1, 2015 at 8:00 PM


Visibility: 31 mi

Pressure: 29.86 "Hg

Humidity: 93%

Dew point: 59 °F

Location of BurgLocation

Historic Weather in Burg — Graph

°F

Burg temperature yesterday

Maximum temperature yesterday: 91 °F (at 6:00 PM)
Minimum temperature yesterday: 66 °F (at 7:00 AM)
Average temperature yesterday: 78 °F

Past Weeks' High & Low Weather Summary

 TemperatureHumidityPressure
High91 °F (Aug 31, 6:00 PM)100% (Aug 20, 5:00 AM)30.30 "Hg (Aug 20, 5:00 AM)
Low51 °F (Aug 23, 7:00 AM)30% (Aug 22, 4:00 PM)29.66 "Hg (Aug 24, 7:00 PM)
Average67 °F75%30.00 "Hg
* Reported Aug 17 7:00 PM — Sep 1 7:00 PM, Burg, Weather by CustomWeather, © 2015

Note: Actual official high and low records may vary slightly from our data, if they occured in-between our weather recording intervals... More about our weather records

Advertising

Burg weather history for previous 24 hours

 ConditionsComfort  
Time TempWeatherWind HumidityBarometerVisibility
7:00 PM
Tue, Sep 1
61 °FLight rain. Overcast.2 mph93%29.85 "Hg25 mi
6:00 PM62 °FOvercast.2 mph95%29.83 "Hg19 mi
5:00 PM62 °FLight rain. Low clouds.3 mph93%29.83 "Hg7 mi
4:00 PM67 °FOvercast.3 mph81%29.79 "Hg22 mi
3:00 PM74 °FOvercast.2 mph65%29.75 "Hg14 mi
2:00 PM75 °FOvercast.2 mph65%29.74 "Hg11 mi
1:00 PM75 °FOvercast.2 mph67%29.75 "Hg22 mi
12:00 PM75 °FScattered clouds.3 mph64%29.75 "Hg25 mi
10:00 AM73 °FPartly sunny.6 mph68%29.77 "Hg19 mi
9:00 AM73 °FScattered clouds.5 mph73%29.77 "Hg16 mi
8:00 AM69 °FScattered clouds.2 mph83%29.76 "Hg7 mi
7:00 AM66 °FFog.1 mph90%29.77 "Hg4 mi
6:00 AM66 °FClear.1 mph92%29.76 "Hg5 mi
5:00 AM67 °FClear.1 mph87%29.75 "Hg7 mi
4:00 AM69 °FPassing clouds.1 mph78%29.75 "Hg11 mi
3:00 AM69 °FClear.2 mph72%29.73 "Hg19 mi
2:00 AM71 °FHaze.2 mph67%29.73 "Hg22 mi
1:00 AM74 °FHaze.3 mph64%29.73 "Hg22 mi
10:00 PM
Mon, Aug 31
78 °FOvercast.2 mph68%29.75 "Hg18 mi
9:00 PM80 °FPassing clouds.1 mph70%29.75 "Hg28 mi
8:00 PM85 °FScattered clouds.2 mph57%29.76 "Hg28 mi
Weather by CustomWeather, © 2015

See weather overviewHow to use our weather pages